Location: *
(55.5817°S, 142.4781°W)
Time: 05:39:03
(UTC+00:00)

Cosmos 1378 Rocket - Pass Details

Date: 29 April 2025
Orbit: 596 x 619 km, 82.5° (Epoch: 23 May)

Event Time Altitude Azimuth Distance (km) Brightness Sun altitude
Rises 15:14:50 0° 192° (SSW) 2,907 6.8 -13.8°
Reaches altitude 10° 15:17:05 10° 192° (SSW) 1,992 6.0 -13.5°
Maximum altitude 15:21:30 87° 102° (ESE) 622 3.6 -12.9°
Drops below altitude 10° 15:25:51 10° 12° (NNE) 1,957 6.4 -12.3°
Sets 15:28:02 0° 11° (N) 2,851 7.2 -12.0°
